Location: Unspecified
(50.7693°N, 0.0000°E)
Time: 07:37:33
(UTC+00:00)

Transit 2A - Pass Details

Date: 02 July 2019
Orbit: 594 x 965 km, 66.7° (Epoch: 17 July)

Event Time Altitude Azimuth Distance (km) Brightness Sun altitude
Rises 23:53:40 0° 250° (WSW) 3,646 9.3 -16.1°
Reaches altitude 10° 23:56:30 10° 258° (WSW) 2,692 8.7 -16.1°
Maximum altitude 00:02:16 36° 324° (NW) 1,451 7.9 -16.2°
Drops below altitude 10° 00:07:47 10° 30° (NNE) 2,563 9.7 -16.2°
Sets 00:10:25 0° 39° (NE) 3,451 10.3 -16.1°
